User: anonymous   Login
Location: Demmingen
(48.6757°N, 10.4375°E)
Time: 07:03:08
(UTC+00:00)
Language:

Resurs 1-3 - Orbit

View from above orbital plane
View from above orbital plane
View from above satellite
View from above satellite

Ground track
Ground track

The orbit data is extracted from the following two-line orbital elements,

1 23342U 94074A   24280.84495645  .00006432  00000-0  79935-3 0  9990
2 23342  97.7196 310.5231 0001105  70.0620 290.0713 14.82894923612205
Epoch (UTC): 06 October 2024 20:16:44
Eccentricity: 0.0001105
inclination: 97.7196°
perigee height: 619 km
apogee height: 621 km
right ascension of ascending node: 310.5231°
argument of perigee: 70.0620°
revolutions per day: 14.82894923
mean anomaly at epoch: 290.0713°
orbit number at epoch: 61220

The dashed part of the orbit path shows where the satellite is in the earth's shadow,  

DLR